Monroe, LA

12:31 PM CDT on March 24, 2017 (GMT -0500)
Monroe Regional

Weather History for KMLU - July, 2014

Change the Weather History Date:

Friday, July 4, 2014

  Actual Average Record
Temperature  
Mean Temperature 76 °F 83 °F  
Max Temperature 86 °F 94 °F 102 °F (1933)
Min Temperature 65 °F 72 °F 63 °F (2013)
Degree Days  
Heating Degree Days 0 0  
Month to date heating degree days 0 0  
Since 1 June heating degree days 0 0  
Since 1 July heating degree days 0 0  
Cooling Degree Days 11 18  
Month to date cooling degree days 63 72  
Year to date cooling degree days 869 973  
Since 1 June cooling degree days 539 538  
Growing Degree Days 25 (Base 50)    
Moisture  
Dew Point 62 °F    
Average Humidity 65    
Maximum Humidity 87    
Minimum Humidity 43    
Precipitation  
Precipitation 0.00 in 0.14 in 1.81 in (1988)
Month to date precipitation 0.09 0.57  
Year to date precipitation 29.93 29.30  
Snow  
Snow 0.00 in - - ()
Month to date snowfall 0.0  
Since 1 June snowfall 0.0  
Since 1 July snowfall 0.0  
Snow Depth 0.00 in    
Sea Level Pressure  
Sea Level Pressure 30.21 in    
Wind  
Wind Speed 6 mph (NE)    
Max Wind Speed 13 mph    
Max Gust Speed 16 mph    
Visibility 10 miles    
Events      
T = Trace of Precipitation, MM = Missing Value Source: NWS Daily Summary

Daily Weather History Graph

Daily Weather History Graph

Search for Another Location

Airport or City:

Trip Planner

Search our weather history database for the weather conditions in past years. The results will help you decide how hot, cold, wet, or windy it might be!

Date:

Astronomy

Jul. 04, 2014 Rise Set
Actual Time 6:05 AM CDT 8:19 PM CDT
Civil Twilight 5:37 AM CDT 8:47 PM CDT
Nautical Twilight 5:02 AM CDT 9:22 PM CDT
Astronomical Twilight 4:25 AM CDT 9:59 PM CDT
Moon 12:38 PM CDT (7/4) 12:04 AM CDT (7/4)
Length of Visible Light 15h 10m
Length of Day
14h 13m
Waxing Crescent, 42% of the Moon is Illuminated
Jul 4
Waxing Crescent
Jul 5
First Quarter
Jul 12
Full
Jul 18
Last Quarter
Jul 26
New

Hourly Weather History & Observations

Time (CDT) Temp. Heat Index Dew Point Humidity Pressure Visibility Wind Dir Wind Speed Gust Speed Precip Events Conditions
12:53 AM 71.1 °F - 64.0 °F 78% 30.18 in 10.0 mi Calm Calm - N/A   Clear
1:53 AM 69.1 °F - 62.1 °F 78% 30.17 in 10.0 mi NE 4.6 mph - N/A   Clear
2:53 AM 68.0 °F - 62.1 °F 81% 30.18 in 10.0 mi NE 8.1 mph - N/A   Clear
3:53 AM 70.0 °F - 63.0 °F 78% 30.18 in 10.0 mi ENE 8.1 mph - N/A   Clear
4:53 AM 68.0 °F - 62.1 °F 81% 30.18 in 10.0 mi ENE 9.2 mph - N/A   Clear
5:53 AM 66.9 °F - 62.1 °F 84% 30.19 in 10.0 mi ENE 8.1 mph - N/A   Clear
6:53 AM 68.0 °F - 62.1 °F 81% 30.22 in 10.0 mi NE 6.9 mph - N/A   Clear
7:53 AM 71.1 °F - 63.0 °F 75% 30.24 in 10.0 mi NE 10.4 mph - N/A   Clear
8:53 AM 73.9 °F - 63.0 °F 68% 30.25 in 10.0 mi ENE 9.2 mph - N/A   Clear
9:53 AM 77.0 °F - 63.0 °F 62% 30.25 in 10.0 mi NE 8.1 mph - N/A   Clear
10:53 AM 78.1 °F - 62.1 °F 58% 30.25 in 10.0 mi NE 6.9 mph - N/A   Clear
11:53 AM 81.0 °F 81.7 °F 61.0 °F 50% 30.25 in 10.0 mi NE 12.7 mph 16.1 mph N/A   Clear
12:53 PM 82.0 °F 82.7 °F 61.0 °F 49% 30.25 in 10.0 mi ENE 5.8 mph - N/A   Clear
1:53 PM 81.0 °F 81.7 °F 61.0 °F 50% 30.24 in 10.0 mi ESE 5.8 mph - N/A   Clear
2:53 PM 84.2 °F 83.8 °F 59.0 °F 42% 30.23 in 10.0 mi East 8.1 mph - N/A   Clear
3:53 PM 84.0 °F 84.4 °F 61.0 °F 46% 30.21 in 10.0 mi NE 3.5 mph - N/A   Clear
4:41 PM 84.2 °F 85.0 °F 62.6 °F 48% 30.21 in 10.0 mi ENE 8.1 mph - N/A   Partly Cloudy
4:53 PM 82.9 °F 83.7 °F 62.1 °F 49% 30.20 in 10.0 mi East 5.8 mph - N/A   Clear
5:53 PM 82.0 °F 82.4 °F 60.1 °F 47% 30.19 in 10.0 mi NNE 8.1 mph - N/A   Clear
6:53 PM 79.0 °F - 62.1 °F 56% 30.18 in 10.0 mi NE 6.9 mph - N/A   Clear
7:53 PM 75.0 °F - 64.0 °F 69% 30.19 in 10.0 mi Calm Calm - N/A   Clear
8:53 PM 71.1 °F - 64.9 °F 81% 30.19 in 10.0 mi NE 3.5 mph - N/A   Clear
9:53 PM 70.0 °F - 64.0 °F 81% 30.20 in 10.0 mi NE 3.5 mph - N/A   Clear
10:53 PM 69.1 °F - 64.0 °F 84% 30.21 in 10.0 mi Calm Calm - N/A   Clear
11:53 PM 68.0 °F - 63.0 °F 84% 30.22 in 10.0 mi Calm Calm - N/A   Clear